Location: Piotrkow Trybunalski
(51.4000°N, 19.6830°E)
Time: 01:37:07
(UTC+01:00)

BlueWalker 3 - Visible Passes

Search period start: 01 December 2022 00:00
Search period end: 11 December 2022 00:00
Orbit: 500 x 519 km, 53.2° (Epoch: 30 November)

Date Brightness Start Highest point End Pass type
(mag) Time Alt. Az. Time Alt. Az. Time Alt. Az.
01 Dec 2.0 17:19:19 10° W 17:23:14 70° N 17:24:49 34° ENE visible
01 Dec 4.4 18:58:11 10° WNW 18:59:38 22° WNW 18:59:38 22° WNW visible
02 Dec 2.0 17:00:57 10° W 17:04:52 69° N 17:07:09 23° ENE visible
02 Dec 3.7 18:39:48 10° WNW 18:41:59 31° WNW 18:41:59 31° WNW visible
03 Dec 2.0 16:42:34 10° W 16:46:29 68° N 16:49:31 16° ENE visible
03 Dec 2.8 18:21:26 10° WNW 18:24:20 48° WNW 18:24:20 48° WNW visible
04 Dec 2.0 16:24:11 10° W 16:28:06 67° N 16:31:54 11° ENE visible
04 Dec 1.9 18:03:02 10° WNW 18:06:44 77° NW 18:06:44 77° NW visible
05 Dec 2.1 16:05:48 10° W 16:09:43 67° N 16:13:37 10° E visible
05 Dec 1.8 17:44:38 10° WNW 17:48:35 86° NNE 17:49:10 63° E visible
05 Dec 5.1 19:23:30 10° W 19:24:00 13° W 19:24:00 13° W visible
06 Dec 1.9 17:26:14 10° WNW 17:30:11 87° NNE 17:31:40 36° ESE visible
06 Dec 4.6 19:05:07 10° W 19:06:30 19° W 19:06:30 19° W visible
07 Dec 1.9 17:07:50 10° WNW 17:11:46 89° NNW 17:14:15 21° ESE visible
07 Dec 4.1 18:46:44 10° W 18:49:06 25° WSW 18:49:06 25° WSW visible
08 Dec 1.9 16:49:25 10° WNW 16:53:22 88° SSW 16:56:59 12° ESE visible
08 Dec 3.7 18:28:21 10° W 18:31:43 28° SW 18:31:50 28° SW visible
09 Dec 2.0 16:31:00 10° WNW 16:34:56 86° SSW 16:38:51 10° ESE visible
09 Dec 3.8 18:09:57 10° W 18:13:17 27° SW 18:14:44 21° S visible
10 Dec 2.0 16:12:34 10° WNW 16:16:31 84° SSW 16:20:25 10° ESE visible
10 Dec 4.0 17:51:34 10° W 17:54:50 26° SW 17:57:52 11° SSE visible
